Location: Kikino
(54.4440°N, 112.0940°W)
Time: 00:09:13
(UTC+00:00)

Vanguard 3 - Pass Details

Date: 29 May 2024
Orbit: 509 x 3231 km, 33.3° (Epoch: 21 June)

Event Time Altitude Azimuth Distance (km) Brightness Sun altitude
Rises 04:32:50 0° 250° (WSW) 4,477 11.2 -5.3°
Reaches altitude 10° 04:36:32 10° 233° (SW) 3,922 10.7 -5.7°
Maximum altitude 04:43:36 20° 192° (SSW) 3,900 10.3 -6.3°
Drops below altitude 10° 04:53:04 10° 154° (SSE) 5,440 10.7 -7.1°
Enters shadow 04:54:41 - 151° (SSE) 5,773 10.8 -7.3°
